Regional Weather Roundup
Issued by NWS

Home | Current Version | Previous Version | Graphics & Text | Print | Product List | Glossary On
Versions: 1 2 3 4 5 6 7 8 9 10 11 12 13 14 15 16 17 18 19 20 21 22 23 24 25 26 27 28 29 30 31 32 33 34 35 36 37 38 39 40 41 42 43 44 45 46 47 48 49 50
000
ASUS43 KBIS 230602
RWRND

NORTH DAKOTA REGIONAL WEATHER ROUNDUP
NATIONAL WEATHER SERVICE BISMARCK ND
100 AM CDT MON OCT 23 2017

NOTE: "FAIR" INDICATES FEW OR NO CLOUDS BELOW 12,000 FEET WITH NO
SIGNIFICANT WEATHER AND/OR OBSTRUCTIONS TO VISIBILITY.


NDZ001>003-009>011-017-230700-
NORTHWEST NORTH DAKOTA

CITY           SKY/WX    TMP DP  RH WIND       PRES   REMARKS
WILLISTON        N/A    N/A N/A N/A MISG      29.83R
MINOT          PTCLDY    51  33  50 W17       29.70R
MINOT AFB      PTCLDY    49  33  55 NW24      29.67R
$$

NDZ018>021-031>035-040>046-230700-
SOUTHWEST NORTH DAKOTA

CITY           SKY/WX    TMP DP  RH WIND       PRES   REMARKS
BISMARCK       CLOUDY    55  39  54 W29G44    29.78R
6HR MIN TEMP:  55; 6HR MAX TEMP:  62;

DICKINSON      CLEAR     49  32  52 W25G43    29.83R
GARRISON         N/A     50  40  68 W14       29.73R
6HR MIN TEMP:  48; 6HR MAX TEMP:  58; 6HR PCP:  0.02;

HETTINGER ARPT CLEAR     45  37  73 W17       29.91R
$$

NDZ004>008-012>016-024-026-027-054-230700-
NORTHEAST NORTH DAKOTA

CITY           SKY/WX    TMP DP  RH WIND       PRES   REMARKS
GRAND FORKS    CLOUDY    59  43  55 SW16G24   29.55F
DEVILS LAKE    CLOUDY    55  39  54 W22G29    29.60R
$$

NDZ022-023-025-028>030-036>039-047>053-230700-
SOUTHEAST NORTH DAKOTA

CITY           SKY/WX    TMP DP  RH WIND       PRES   REMARKS
FARGO          MOCLDY    53  42  66 CALM      29.64S
6HR MIN TEMP:  52; 6HR MAX TEMP:  61; 6HR PCP: TRACE;

JAMESTOWN      CLOUDY    54  41  61 W16       29.65S
$$





USA.gov is the U.S. government's official web portal to all federal, state and local government web resources and services.